User: anonymous   Login
Location: Columbia
(38.9520°N, 92.3340°W)
Time: 23:57:22
(UTC-05:00)
Language:

CZ-4B R/B - Orbit

View from above orbital plane
View from above orbital plane
View from above satellite
View from above satellite

Ground track
Ground track

The orbit data is extracted from the following two-line orbital elements,

1 29093U 06015B   16236.21733151  .00002308  00000-0  61077-4 0  9994
2 29093  97.4859 334.7895 0067067 308.3292  51.1935 15.37258552571717
Epoch (UTC): 23 August 2016 05:12:57
Eccentricity: 0.0067067
inclination: 97.4859°
perigee height: 408 km
apogee height: 500 km
right ascension of ascending node: 334.7895°
argument of perigee: 308.3292°
revolutions per day: 15.37258552
mean anomaly at epoch: 51.1935°
orbit number at epoch: 57171

The dashed part of the orbit path shows where the satellite is in the earth's shadow,  

DLR